Location: *
(46.3500°N, 10.9000°E)
Time: 21:42:22
(UTC+00:00)

A-11 Canister half - Pass Details

Date: 28 April 2021
Orbit: 1526 x 1682 km, 47.3° (Epoch: 13 May)

Event Time Altitude Azimuth Distance (km) Brightness Sun altitude
Rises 18:42:18 0° 293° (WNW) 4,927 14.8 -4.1°
Reaches altitude 10° 18:45:39 10° 287° (WNW) 3,944 13.0 -4.6°
Maximum altitude 18:54:58 44° 220° (SW) 2,210 10.0 -6.1°
Drops below altitude 10° 19:04:13 10° 153° (SSE) 3,909 10.6 -7.4°
Enters shadow 19:06:30 - 149° (SSE) 4,567 10.9 -7.8°
Sets 19:07:32 0° 147° (SSE) 4,879 - -7.9°
